This demonstration page uses our WeatherBlox Daily Observations layout. Learn more.

Left ArrowRight Arrow

34.74481, -87.66753

Hourly Observations for June 3, 2017

Temp ( °F °C ) Dew Point ( °F °C ) Humidity (%) Winds ( mph kmh ) Pressure ( in mb ) Visibility ( mi km ) Precip ( " mm )
12:09 am 00:09 Clear with Mist and Fog 68 20 66 18.9 93 93 Calm 30.03 1017 2 3 0.00 0.00
12:24 am 00:24 Partly Cloudy with Mist and Fog 69 20.6 66 18.9 90 90 Calm 30.03 1017 4 6 0.00 0.00
12:53 am 00:53 Mostly Cloudy 69 20.6 66 18.9 90 90 Calm 30.03 1017 7 11 0.00 0.00
1:33 am 01:33 Clear with Mist and Fog 68 20 65 18.3 90 90 Calm 30.00 1016 2 3 0.00 0.00
1:44 am 01:44 Clear with Mist and Fog 67 19.4 64 17.8 91 91 Calm 30.00 1016 3 5 0.00 0.00
1:53 am 01:53 Clear with Mist and Fog 67 19.4 65 18.3 93 93 Calm 30.02 1017 3 5 0.00 0.00
1:58 am 01:58 Mostly Clear with Mist and Fog 67 19.4 64 17.8 91 91 Calm 30.00 1016 2 3 0.00 0.00
2:16 am 02:16 Clear with Mist and Fog 66 18.9 64 17.8 93 93 Calm 30.00 1016 3 5 0.00 0.00
2:27 am 02:27 Mostly Clear with Mist and Fog 66 18.9 64 17.8 93 93 Calm 30.00 1016 5 8 0.00 0.00
2:53 am 02:53 Mostly Clear with Mist and Fog 67 19.4 65 18.3 93 93 Calm 30.01 1016 6 10 0.00 0.00
3:03 am 03:03 Partly Cloudy with Mist and Fog 66 18.9 63 17.2 90 90 Calm 30.00 1016 2 2 0.00 0.00
3:06 am 03:06 Mostly Cloudy with Mist and Fog 66 18.9 63 17.2 90 90 Calm 30.00 1016 1 1 0.00 0.00
3:25 am 03:25 Mostly Cloudy with Mist and Fog 65 18.3 63 17.2 93 93 Calm 30.00 1016 1 2 0.00 0.00
3:53 am 03:53 Cloudy with Mist and Fog 66 18.9 64 17.8 93 93 Calm 30.01 1016 2 2 0.00 0.00
3:58 am 03:58 Cloudy with Mist and Fog 66 18.9 64 17.8 93 93 Calm 30.00 1016 3 5 0.00 0.00
4:16 am 04:16 Cloudy 67 19.4 65 18.3 93 93 Calm 30.00 1016 10 16 0.00 0.00
4:53 am 04:53 Cloudy 67 19.4 65 18.3 93 93 Calm 30.02 1017 7 11 0.00 0.00
5:53 am 05:53 Cloudy 68 20 66 18.9 93 93 Calm 30.04 1017 7 11 0.00 0.00
6:53 am 06:53 Cloudy 70 21.1 67 19.4 90 90 Calm 30.06 1018 10 16 0.00 0.00
7:53 am 07:53 Mostly Cloudy 73 22.8 69 20.6 87 87 Calm 30.07 1018 10 16 0.00 0.00
8:53 am 08:53 Partly Cloudy 75 23.9 70 21.1 84 84 E 5 7 30.07 1018 10 16 0.00 0.00
9:53 am 09:53 Sunny 80 26.7 68 20 67 67 E 6 9 30.06 1018 10 16 0.00 0.00
10:53 am 10:53 Mostly Sunny 83 28.3 68 20 61 61 SE 9 15 30.05 1018 10 16 0.00 0.00
11:53 am 11:53 Mostly Sunny 85 29.4 66 18.9 53 53 SE 7 11 30.04 1017 10 16 0.00 0.00
12:53 pm 12:53 Sunny 87 30.6 66 18.9 50 50 SE 8 13 30.01 1016 10 16 0.00 0.00
1:53 pm 13:53 Mostly Cloudy 83 28.3 67 19.4 59 59 E 9 15 30.00 1016 10 16 0.00 0.00
2:53 pm 14:53 Mostly Sunny 86 30 66 18.9 51 51 SE 8 13 29.98 1015 10 16 0.00 0.00
3:53 pm 15:53 Mostly Cloudy 86 30 64 17.8 48 48 SE 6 9 29.96 1014 10 16 0.00 0.00
4:53 pm 16:53 Mostly Sunny 88 31.1 66 18.9 48 48 E 7 11 29.94 1014 10 16 0.00 0.00
5:53 pm 17:53 Mostly Cloudy 84 28.9 66 18.9 55 55 SSE 9 15 29.96 1014 10 16 0.00 0.00
6:38 pm 18:38 Mostly Cloudy with Nearby Thunderstorms 75 23.9 65 18.3 71 71 SSW 10 17 29.97 1015 10 16 0.00 0.00
6:53 pm 18:53 Cloudy with Light Rain 73 22.8 66 18.9 79 79 SSW 6 9 29.98 1015 10 16 0.00 0.03
7:53 pm 19:53 Mostly Cloudy 72 22.2 68 20 87 87 SW 5 7 29.98 1015 10 16 0.00 0.03
8:53 pm 20:53 Mostly Cloudy 72 22.2 69 20.6 91 91 E 6 9 29.98 1015 10 16 0.01 0.25
9:53 pm 21:53 Clear 71 21.7 68 20 90 90 NNE 3 6 30.00 1016 10 16 0.00 0.00
10:53 pm 22:53 Mostly Cloudy 71 21.7 68 20 90 90 Calm 30.00 1016 10 16 0.00 0.00
11:53 pm 23:53 Clear 70 21.1 67 19.4 90 90 SE 3 6 29.99 1016 10 16 0.00 0.00

Powered by AerisWeather